OK2SZ-6 Weather Reports


Display with metric or nautical units.
time (UTC)temp
F
wind
direction
speed
MPH
gust
MPH
rain 1hr
in
rain 24hr
in
rain mn
in
humidity
%
barometer
mb
20260505062504 62 194 1.0 6.0 0.00 0.00 0.00 50 1008.4
20260505062025 63 186 1.0 6.0 0.00 0.00 0.00 48 1008.3
20260505061504 63 135 1.0 4.0 0.00 0.00 0.00 48 1008.4
20260505061004 63 31 1.0 4.0 0.00 0.00 0.00 51 1008.5
20260505060504 63 24 0.0 3.0 0.00 0.00 0.00 52 1008.4
20260505060004 62 19 0.0 2.0 0.00 0.00 0.00 53 1008.3
20260505055504 61 19 0.0 2.0 0.00 0.00 0.00 55 1008.4
20260505055004 60 21 0.0 1.0 0.00 0.00 0.00 63 1008.3
20260505054504 58 22 0.0 1.0 0.00 0.00 0.00 65 1008.3
20260505054004 57 21 0.0 1.0 0.00 0.00 0.00 67 1008.6
20260505053504 56 21 0.0 1.0 0.00 0.00 0.00 69 1008.3
20260505053004 54 22 0.0 1.0 0.00 0.00 0.00 72 1008.3
20260505052504 52 22 0.0 2.0 0.00 0.00 0.00 74 1008.3
20260505052004 50 22 0.0 2.0 0.00 0.00 0.00 76 1008.3
20260505051504 51 17 0.0 2.0 0.00 0.00 0.00 75 1008.4
20260505051004 50 10 0.0 2.0 0.00 0.00 0.00 76 1008.4
20260505050504 48 8 0.0 1.0 0.00 0.00 0.00 83 1008.2
20260505041525 46 0 0.0 0.0 0.00 0.00 0.00 84 1008.4
20260505041004 46 9 0.0 1.0 0.00 0.00 0.00 83 1008.6
20260505040504 46 9 0.0 1.0 0.00 0.00 0.00 83 1008.6
20260505040025 46 9 0.0 1.0 0.00 0.00 0.00 84 1008.4
20260505035504 45 9 0.0 1.0 0.00 0.00 0.00 84 1008.7
20260505035025 46 9 0.0 1.0 0.00 0.00 0.00 84 1008.5
20260505034504 46 9 0.0 1.0 0.00 0.00 0.00 83 1008.6
20260505034004 46 9 0.0 1.0 0.00 0.00 0.00 83 1008.7
20260505033504 46 0 0.0 0.0 0.00 0.00 0.00 83 1008.7
20260505033004 46 0 0.0 0.0 0.00 0.00 0.00 84 1008.7
20260505032504 46 10 0.0 1.0 0.00 0.00 0.00 83 1008.9
20260505032025 46 11 0.0 1.0 0.00 0.00 0.00 83 1008.8
20260505031504 46 12 0.0 1.0 0.00 0.00 0.00 84 1008.6
20260505031004 46 12 0.0 1.0 0.00 0.00 0.00 84 1008.9
20260505030504 46 12 0.0 1.0 0.00 0.00 0.00 84 1008.9
20260505030004 47 12 0.0 1.0 0.00 0.00 0.00 83 1008.7
20260505025504 46 12 0.0 1.0 0.00 0.00 0.00 83 1008.9
20260505025004 46 13 0.0 1.0 0.00 0.00 0.00 84 1008.9
20260505024504 46 0 0.0 0.0 0.00 0.00 0.00 84 1008.8
20260505024004 46 0 0.0 0.0 0.00 0.00 0.00 84 1008.9
20260505023525 46 0 0.0 0.0 0.00 0.00 0.00 83 1009.0
20260505023004 47 13 0.0 1.0 0.00 0.00 0.00 83 1008.9
20260505022504 47 13 0.0 1.0 0.00 0.00 0.00 83 1009.0
20260505022004 47 16 0.0 2.0 0.00 0.00 0.00 82 1009.1
20260505021525 47 16 0.0 2.0 0.00 0.00 0.00 81 1008.8
20260505021025 47 349 0.0 1.0 0.00 0.00 0.00 81 1009.1
20260505020504 48 352 0.0 1.0 0.00 0.00 0.00 81 1009.0
20260505020004 48 352 0.0 1.0 0.00 0.00 0.00 81 1009.1
20260505015504 48 343 0.0 1.0 0.00 0.00 0.00 80 1009.2
20260505015025 48 334 0.0 1.0 0.00 0.00 0.00 80 1009.1
20260505014504 48 334 0.0 1.0 0.00 0.00 0.00 80 1009.4
20260505014025 48 334 0.0 1.0 0.00 0.00 0.00 80 1009.2
20260505013504 48 335 0.0 1.0 0.00 0.00 0.00 80 1009.4
20260505013025 48 335 0.0 1.0 0.00 0.00 0.00 80 1009.4
20260505012504 48 338 0.0 1.0 0.00 0.00 0.00 80 1009.1
20260505012004 48 339 0.0 1.0 0.00 0.00 0.00 80 1009.6
20260505011525 48 336 0.0 1.0 0.00 0.00 0.00 80 1009.4
20260505011004 48 335 0.0 1.0 0.00 0.00 0.00 80 1009.2
20260505010525 48 0 0.0 0.0 0.00 0.00 0.00 81 1009.4
20260505010025 48 0 0.0 0.0 0.00 0.00 0.00 81 1009.3
20260505005525 48 335 0.0 1.0 0.00 0.00 0.00 80 1009.7
20260505005004 48 335 0.0 1.0 0.00 0.00 0.00 80 1009.5
20260505004504 48 335 0.0 1.0 0.00 0.00 0.00 79 1009.3
20260505004004 48 335 0.0 1.0 0.00 0.00 0.00 79 1009.6
20260505003504 49 335 0.0 1.0 0.00 0.00 0.00 79 1009.7
20260505003004 49 335 0.0 1.0 0.00 0.00 0.00 77 1009.8
20260505002504 49 335 0.0 1.0 0.00 0.00 0.00 78 1009.8
20260505002004 49 335 0.0 1.0 0.00 0.00 0.00 77 1009.8
20260505001525 49 335 0.0 1.0 0.00 0.00 0.00 77 1009.9
20260505001004 49 338 0.0 2.0 0.00 0.00 0.00 78 1009.9
20260505000504 49 339 0.0 2.0 0.00 0.00 0.00 78 1009.9
20260505000004 50 340 0.0 1.0 0.00 0.00 0.00 78 1010.2
20260504235504 50 340 0.0 1.0 0.00 0.00 0.00 75 1010.2
20260504235004 50 340 0.0 1.0 0.00 0.00 0.00 77 1010.2
20260504234525 50 340 0.0 1.0 0.00 0.00 0.00 76 1010.2
20260504234004 50 338 0.0 1.0 0.00 0.00 0.00 75 1010.2
20260504233504 50 338 0.0 1.0 0.00 0.00 0.00 76 1010.3
20260504233004 50 0 0.0 0.0 0.00 0.00 0.00 75 1010.2
20260504232504 50 0 0.0 0.0 0.00 0.00 0.00 74 1010.3
20260504232004 51 339 0.0 1.0 0.00 0.00 0.00 74 1010.5
20260504231504 51 339 0.0 1.0 0.00 0.00 0.00 74 1010.3
20260504231025 50 340 0.0 1.0 0.00 0.00 0.00 76 1010.4
20260504230504 50 340 0.0 1.0 0.00 0.00 0.00 76 1010.3
20260504230004 51 348 0.0 1.0 0.00 0.00 0.00 76 1010.4
20260504225504 51 348 0.0 1.0 0.00 0.00 0.00 74 1010.5
20260504225025 51 348 0.0 1.0 0.00 0.00 0.00 74 1010.8
20260504224504 51 349 0.0 1.0 0.00 0.00 0.00 75 1010.9
20260504224004 51 350 0.0 1.0 0.00 0.00 0.00 73 1010.8
20260504223525 51 0 0.0 0.0 0.00 0.00 0.00 74 1010.6
20260504223004 52 14 0.0 2.0 0.00 0.00 0.00 74 1010.9
20260504222525 52 359 0.0 2.0 0.00 0.00 0.00 72 1010.9
20260504222004 52 351 0.0 2.0 0.00 0.00 0.00 72 1010.9
20260504221504 52 356 0.0 2.0 0.00 0.00 0.00 70 1010.8
20260504221004 53 353 0.0 2.0 0.00 0.00 0.00 71 1010.9
20260504220504 52 359 0.0 1.0 0.00 0.00 0.00 72 1011.1
20260504220004 52 357 0.0 2.0 0.00 0.00 0.00 73 1010.9
20260504215504 53 343 0.0 2.0 0.00 0.00 0.00 71 1011.1
20260504215025 52 0 0.0 0.0 0.00 0.00 0.00 72 1011.0
20260504214504 52 357 0.0 1.0 0.00 0.00 0.00 73 1011.1
20260504214004 53 354 0.0 2.0 0.00 0.00 0.00 72 1011.1
20260504213525 53 348 0.0 2.0 0.00 0.00 0.00 73 1011.2
20260504213004 53 350 0.0 2.0 0.00 0.00 0.00 72 1011.3
20260504212504 53 351 0.0 1.0 0.00 0.00 0.00 71 1011.3
20260504212004 54 354 0.0 1.0 0.00 0.00 0.00 70 1011.4
20260504211504 54 357 0.0 1.0 0.00 0.00 0.00 70 1011.3
20260504211004 54 358 0.0 1.0 0.00 0.00 0.00 70 1011.5
20260504210504 54 0 0.0 0.0 0.00 0.00 0.00 69 1011.4
20260504210025 55 0 0.0 0.0 0.00 0.00 0.00 69 1011.6
20260504205504 55 357 0.0 1.0 0.00 0.00 0.00 69 1011.1
20260504205004 55 357 0.0 1.0 0.00 0.00 0.00 68 1011.4
20260504204504 55 357 0.0 1.0 0.00 0.00 0.00 68 1011.3
20260504204004 56 357 0.0 1.0 0.00 0.00 0.00 67 1011.5
20260504203504 56 357 0.0 1.0 0.00 0.00 0.00 66 1011.7
20260504203004 56 357 0.0 1.0 0.00 0.00 0.00 67 1011.4
20260504202504 56 357 0.0 1.0 0.00 0.00 0.00 66 1011.5
20260504202004 57 0 0.0 0.0 0.00 0.00 0.00 66 1011.6
20260504201504 57 344 0.0 2.0 0.00 0.00 0.00 65 1011.4
20260504201004 58 345 0.0 2.0 0.00 0.00 0.00 64 1011.7
20260504200525 58 346 0.0 2.0 0.00 0.00 0.00 64 1011.3
20260504200004 58 351 0.0 1.0 0.00 0.00 0.00 65 1011.5
20260504195504 58 355 0.0 1.0 0.00 0.00 0.00 62 1011.5
20260504195004 58 6 0.0 1.0 0.00 0.00 0.00 62 1011.5
20260504194504 58 9 0.0 1.0 0.00 0.00 0.00 62 1011.4
20260504194004 58 0 0.0 0.0 0.00 0.00 0.00 62 1011.4
20260504193504 58 16 0.0 1.0 0.00 0.00 0.00 63 1011.5
20260504193004 59 13 0.0 1.0 0.00 0.00 0.00 61 1011.5
20260504192504 59 348 0.0 2.0 0.00 0.00 0.00 61 1011.3
20260504192004 59 312 0.0 2.0 0.00 0.00 0.00 61 1011.7
20260504191504 61 284 0.0 1.0 0.00 0.00 0.00 59 1011.6
20260504191004 61 264 0.0 1.0 0.00 0.00 0.00 58 1011.4
20260504190525 61 263 0.0 1.0 0.00 0.00 0.00 57 1011.3
20260504190004 62 0 0.0 0.0 0.00 0.00 0.00 57 1011.0
20260504185504 62 0 0.0 0.0 0.00 0.00 0.00 55 1011.2
20260504185004 62 263 0.0 1.0 0.00 0.00 0.00 54 1011.3
20260504184504 63 263 0.0 1.0 0.00 0.00 0.00 54 1011.4
20260504184004 64 262 0.0 1.0 0.00 0.00 0.00 54 1011.1
20260504183504 65 262 0.0 1.0 0.00 0.00 0.00 53 1011.3
20260504183004 66 262 0.0 1.0 0.00 0.00 0.00 50 1011.1
20260504182504 67 258 0.0 2.0 0.00 0.00 0.00 47 1011.1
20260504182004 68 253 0.0 2.0 0.00 0.00 0.00 46 1011.3
20260504181504 69 249 0.0 2.0 0.00 0.00 0.00 44 1011.0
20260504181004 69 243 1.0 3.0 0.00 0.00 0.00 42 1011.2
20260504180504 69 232 1.0 6.0 0.00 0.00 0.00 41 1011.0
20260504180004 70 229 2.0 6.0 0.00 0.00 0.00 41 1011.1
20260504175504 70 228 2.0 4.0 0.00 0.00 0.00 41 1011.1
20260504175004 71 219 2.0 10.0 0.00 0.00 0.00 40 1010.9
20260504174504 71 211 2.0 10.0 0.00 0.00 0.00 39 1011.1
20260504174025 72 206 2.0 10.0 0.00 0.00 0.00 39 1011.1
20260504173525 72 222 2.0 6.0 0.00 0.00 0.00 39 1011.0
20260504173004 72 219 2.0 6.0 0.00 0.00 0.00 39 1010.9
20260504172504 72 208 2.0 8.0 0.00 0.00 0.00 39 1011.0
20260504172004 72 218 2.0 8.0 0.00 0.00 0.00 39 1010.8
20260504171525 72 232 2.0 6.0 0.00 0.00 0.00 38 1011.1
20260504171025 72 224 2.0 6.0 0.00 0.00 0.00 39 1010.9
20260504170504 73 216 1.0 6.0 0.00 0.00 0.00 39 1010.9
20260504151004 76 226 2.0 7.0 0.00 0.00 0.00 38 1011.3
20260504150504 76 236 3.0 8.0 0.00 0.00 0.00 39 1011.1
20260504141004 79 144 2.0 9.0 0.00 0.00 0.00 37 1011.6
20260504140525 78 130 2.0 10.0 0.00 0.00 0.00 39 1011.7
20260504130525 77 198 3.0 11.0 0.00 0.00 0.00 41 1012.0
20260504110504 73 220 3.0 11.0 0.00 0.00 0.00 44 1013.3
20260504100504 70 205 2.0 6.0 0.00 0.00 0.00 47 1013.9
20260504081504 66 187 2.0 9.0 0.00 0.00 0.00 48 1014.0
20260504081004 68 110 2.0 9.0 0.00 0.00 0.00 47 1013.7
20260504080504 67 126 3.0 9.0 0.00 0.00 0.00 50 1014.0